TIANMU-1 22

Last updated on Sat Oct 18 2025 00:02:24 GMT+0000 (Coordinated Universal Time)

1 58663U 23208D 25290.71316753 .00013519 00000+0 52442-3 0 9992 2 58663 97.4358 42.0145 0005245 115.3342 244.8440 15.26224922100289
UTC large
Height (km)
Speed (km/s)
/
Latitude / Longitude
Inclination (degrees)
Orbital Period (minutes)
Azimuth
Elevation
Range (km)
Doppler Factor

Next 0 passes for location: London (51.5072 / 0.1276)

Sorry there are no passes over London.